EW5417 Weather Reports


Display with metric or nautical units.
time (UTC)temp
F
wind
direction
speed
MPH
gust
MPH
rain 1hr
in
rain 24hr
in
rain mn
in
humidity
%
barometer
mb
20260509185407 84 344 4.0 8.0 0.00 0.00 0.00 32 1020.1
20260509184508 84 343 7.0 15.0 0.00 0.00 0.00 32 1021.2
20260509183628 84 341 11.0 15.0 0.00 0.00 0.00 32 1021.2
20260509182707 84 342 8.0 15.0 0.00 0.00 0.00 32 1021.2
20260509181828 83 342 6.0 8.0 0.00 0.00 0.00 32 1019.1
20260509180928 83 344 3.0 10.0 0.00 0.00 0.00 32 1019.1
20260509180007 83 344 4.0 10.0 0.00 0.00 0.00 32 1019.1
20260509175407 83 347 6.0 12.0 0.00 0.00 0.00 32 1019.1
20260509174507 83 346 7.0 13.0 0.00 0.00 0.00 32 1020.1
20260509173607 84 344 9.0 15.0 0.00 0.00 0.00 32 1020.1
20260509172707 84 342 7.0 12.0 0.00 0.00 0.00 32 1020.1
20260509171807 84 341 7.0 11.0 0.00 0.00 0.00 32 1020.1
20260509170907 84 334 6.0 13.0 0.00 0.00 0.00 33 1020.1
20260509170008 84 345 6.0 17.0 0.00 0.00 0.00 32 1020.1
20260509165406 84 339 6.0 13.0 0.00 0.00 0.00 32 1020.1
20260509164506 84 347 6.0 12.0 0.00 0.00 0.00 32 1021.2
20260509163607 84 344 8.0 12.0 0.00 0.00 0.00 32 1021.2
20260509162706 85 346 6.0 13.0 0.00 0.00 0.00 32 1021.2
20260509161807 84 336 8.0 11.0 0.00 0.00 0.00 33 1021.2
20260509160906 84 339 5.0 12.0 0.00 0.00 0.00 33 1021.2
20260509160007 84 341 6.0 10.0 0.00 0.00 0.00 33 1021.2
20260509155428 84 334 6.0 10.0 0.00 0.00 0.00 33 1021.2
20260509154506 85 342 6.0 10.0 0.00 0.00 0.00 33 1021.2
20260509153606 85 343 5.0 11.0 0.00 0.00 0.00 34 1021.2
20260509152706 85 333 4.0 11.0 0.00 0.00 0.00 34 1021.2
20260509151807 86 337 5.0 10.0 0.00 0.00 0.00 34 1022.3
20260509150927 85 338 4.0 11.0 0.00 0.00 0.00 34 1022.3
20260509150006 85 347 4.0 14.0 0.00 0.00 0.00 34 1022.3
20260509144506 86 326 6.0 8.0 0.00 0.00 0.00 35 1023.3
20260509143606 86 329 6.0 12.0 0.00 0.00 0.00 36 1021.2
20260509142706 85 341 7.0 10.0 0.00 0.00 0.00 36 1021.2
20260509141828 83 343 5.0 8.0 0.00 0.00 0.00 37 1022.3
20260509140906 82 344 5.0 8.0 0.00 0.00 0.00 38 1022.3
20260509140007 81 344 2.0 8.0 0.00 0.00 0.00 38 1022.3
20260509135406 81 353 5.0 8.0 0.00 0.00 0.00 38 1022.3
20260509134527 80 357 6.0 9.0 0.00 0.00 0.00 39 1022.3
20260509133606 80 360 3.0 8.0 0.00 0.00 0.00 39 1022.3
20260509132706 80 349 5.0 9.0 0.00 0.00 0.00 39 1022.3
20260509131826 79 344 3.0 8.0 0.00 0.00 0.00 40 1022.3
20260509130906 79 346 4.0 9.0 0.00 0.00 0.00 40 1022.3
20260509130006 78 348 2.0 9.0 0.00 0.00 0.00 40 1022.3
20260509125406 78 2 5.0 8.0 0.00 0.00 0.00 40 1022.3
20260509124506 78 1 3.0 8.0 0.00 0.00 0.00 40 1022.3
20260509123606 77 359 3.0 6.0 0.00 0.00 0.00 41 1022.3
20260509122707 77 347 4.0 6.0 0.00 0.00 0.00 41 1022.3
20260509121806 77 344 3.0 6.0 0.00 0.00 0.00 41 1022.3
20260509120906 77 345 3.0 6.0 0.00 0.00 0.00 41 1022.3
20260509120027 76 1 4.0 6.0 0.00 0.00 0.00 41 1023.3
20260509115405 76 359 2.0 4.0 0.00 0.00 0.00 41 1023.3
20260509114527 75 334 2.0 7.0 0.00 0.00 0.00 41 1022.3
20260509113605 75 353 2.0 6.0 0.00 0.00 0.00 41 1022.3
20260509112727 74 4 3.0 6.0 0.00 0.00 0.00 41 1022.3
20260509111806 74 8 3.0 5.0 0.00 0.00 0.00 41 1021.2
20260509110926 74 10 1.0 4.0 0.00 0.00 0.00 41 1021.2
20260509110006 74 354 2.0 3.0 0.00 0.00 0.00 41 1021.2
20260509105406 74 354 1.0 3.0 0.00 0.00 0.00 41 1021.2
20260509104507 74 315 0.0 2.0 0.00 0.00 0.00 41 1021.2
20260509103605 74 315 1.0 1.0 0.00 0.00 0.00 41 1021.2
20260509102705 73 337 0.0 2.0 0.00 0.00 0.00 41 1021.2
20260509101826 73 335 0.0 3.0 0.00 0.00 0.00 42 1021.2
20260509100906 73 0 0.0 0.0 0.00 0.00 0.00 41 1021.2
20260509100006 73 337 0.0 1.0 0.00 0.00 0.00 41 1020.1
20260509095405 73 0 0.0 0.0 0.00 0.00 0.00 41 1020.1
20260509094506 72 337 0.0 2.0 0.00 0.00 0.00 41 1020.1
20260509093605 72 0 0.0 0.0 0.00 0.00 0.00 41 1020.1
20260509092705 72 340 0.0 3.0 0.00 0.00 0.00 41 1020.1
20260509091806 72 1 2.0 4.0 0.00 0.00 0.00 41 1019.1
20260509090905 72 292 0.0 3.0 0.00 0.00 0.00 41 1019.1
20260509090005 72 292 2.0 3.0 0.00 0.00 0.00 41 1021.2
20260509085406 73 292 1.0 2.0 0.00 0.00 0.00 41 1021.2
20260509084505 73 292 0.0 3.0 0.00 0.00 0.00 41 1021.2
20260509083605 73 319 2.0 4.0 0.00 0.00 0.00 40 1020.1
20260509082705 73 338 3.0 5.0 0.00 0.00 0.00 40 1020.1
20260509081806 73 331 3.0 8.0 0.00 0.00 0.00 40 1020.1
20260509080906 73 333 3.0 9.0 0.00 0.00 0.00 40 1020.1
20260509080005 73 326 4.0 6.0 0.00 0.00 0.00 40 1020.1
20260509075405 73 328 1.0 6.0 0.00 0.00 0.00 40 1020.1
20260509074505 73 345 4.0 6.0 0.00 0.00 0.00 40 1020.1
20260509073605 73 325 2.0 4.0 0.00 0.00 0.00 40 1020.1
20260509072705 73 281 3.0 6.0 0.00 0.00 0.00 40 1020.1
20260509071826 73 211 3.0 6.0 0.00 0.00 0.00 39 1020.1
20260509070906 74 308 2.0 6.0 0.00 0.00 0.00 39 1020.1
20260509070026 73 182 0.0 4.0 0.00 0.00 0.00 39 1019.1
20260509065405 73 307 0.0 4.0 0.00 0.00 0.00 39 1019.1
20260509064505 73 350 3.0 5.0 0.00 0.00 0.00 39 1019.1
20260509063626 73 357 3.0 6.0 0.00 0.00 0.00 39 1019.1
20260509062705 73 357 3.0 6.0 0.00 0.00 0.00 39 1019.1
20260509061805 73 356 3.0 6.0 0.00 0.00 0.00 39 1019.1
20260509060905 73 4 4.0 6.0 0.00 0.00 0.00 39 1019.1
20260509060005 73 356 2.0 4.0 0.00 0.00 0.00 38 1020.1
20260509055426 73 360 2.0 4.0 0.00 0.00 0.00 38 1020.1
20260509054525 74 353 3.0 6.0 0.00 0.00 0.00 38 1019.1
20260509053604 74 348 2.0 6.0 0.00 0.00 0.00 38 1019.1
20260509052704 74 347 2.0 5.0 0.00 0.00 0.00 38 1019.1
20260509051805 74 1 3.0 5.0 0.00 0.00 0.00 38 1020.1
20260509050905 74 4 3.0 5.0 0.00 0.00 0.00 38 1020.1
20260509050004 74 356 3.0 6.0 0.00 0.00 0.00 38 1019.1
20260509045404 74 359 3.0 5.0 0.00 0.00 0.00 38 1019.1
20260509044526 74 360 2.0 6.0 0.00 0.00 0.00 38 1020.1
20260509043625 74 3 3.0 6.0 0.00 0.00 0.00 38 1020.1
20260509042704 74 5 3.0 6.0 0.00 0.00 0.00 37 1020.1
20260509041825 74 2 3.0 6.0 0.00 0.00 0.00 37 1019.1
20260509040904 75 354 2.0 4.0 0.00 0.00 0.00 37 1019.1
20260509040025 75 13 3.0 6.0 0.00 0.00 0.00 37 1020.1
20260509035426 75 360 3.0 6.0 0.00 0.00 0.00 37 1020.1
20260509034504 75 346 2.0 5.0 0.00 0.00 0.00 37 1020.1
20260509033604 75 348 3.0 6.0 0.00 0.00 0.00 37 1020.1
20260509032704 75 338 3.0 5.0 0.00 0.00 0.00 37 1020.1
20260509031804 75 345 3.0 5.0 0.00 0.00 0.00 37 1020.1
20260509030905 76 348 3.0 5.0 0.00 0.00 0.00 37 1020.1
20260509030004 76 355 3.0 4.0 0.00 0.00 0.00 37 1020.1
20260509025404 76 352 3.0 6.0 0.00 0.00 0.00 37 1020.1
20260509024503 76 348 2.0 4.0 0.00 0.00 0.00 36 1020.1
20260509023604 76 337 2.0 4.0 0.00 0.00 0.00 36 1020.1
20260509022725 76 337 2.0 3.0 0.00 0.00 0.00 36 1020.1
20260509021804 76 335 2.0 5.0 0.00 0.00 0.00 36 1020.1
20260509020925 76 315 2.0 3.0 0.00 0.00 0.00 36 1020.1
20260509020004 76 315 0.0 3.0 0.00 0.00 0.00 36 1020.1
20260509015404 76 315 0.0 3.0 0.00 0.00 0.00 36 1020.1
20260509014504 77 315 0.0 3.0 0.00 0.00 0.00 36 1020.1
20260509013604 77 323 0.0 3.0 0.00 0.00 0.00 36 1019.1
20260509012704 77 326 1.0 4.0 0.00 0.00 0.00 36 1019.1
20260509011804 77 332 3.0 4.0 0.00 0.00 0.00 36 1019.1
20260509010904 77 347 2.0 4.0 0.00 0.00 0.00 36 1019.1
20260509010024 77 315 0.0 2.0 0.00 0.00 0.00 35 1019.1
20260509005405 77 315 1.0 2.0 0.00 0.00 0.00 35 1019.1
20260509004504 77 0 0.0 0.0 0.00 0.00 0.00 35 1019.1
20260509003604 77 0 0.0 0.0 0.00 0.00 0.00 35 1019.1
20260509002704 78 315 0.0 2.0 0.00 0.00 0.00 35 1019.1
20260509001804 78 315 1.0 3.0 0.00 0.00 0.00 35 1019.1
20260509000903 78 0 0.0 0.0 0.00 0.00 0.00 35 1019.1
20260509000004 78 0 0.0 0.0 0.00 0.00 0.00 35 1018.0
20260508235403 78 0 0.0 0.0 0.00 0.00 0.00 35 1018.0
20260508234508 78 338 0.0 3.0 0.00 0.00 0.00 34 1018.0
20260508233629 79 337 0.0 3.0 0.00 0.00 0.00 34 1018.0
20260508232708 79 348 0.0 3.0 0.00 0.00 0.00 34 1018.0
20260508231829 79 8 0.0 3.0 0.00 0.00 0.00 34 1018.0
20260508230908 79 325 1.0 5.0 0.00 0.00 0.00 34 1018.0
20260508230030 79 292 1.0 3.0 0.00 0.00 0.00 34 1019.1
20260508225409 79 292 1.0 3.0 0.00 0.00 0.00 34 1019.1
20260508224508 79 292 2.0 3.0 0.00 0.00 0.00 34 1019.1
20260508223608 80 310 2.0 4.0 0.00 0.00 0.00 34 1018.0
20260508222729 80 339 3.0 4.0 0.00 0.00 0.00 33 1018.0
20260508221808 80 339 2.0 4.0 0.00 0.00 0.00 34 1018.0
20260508220908 80 310 2.0 4.0 0.00 0.00 0.00 34 1018.0
20260508220028 80 292 0.0 3.0 0.00 0.00 0.00 34 1018.0
20260508215407 80 0 0.0 0.0 0.00 0.00 0.00 34 1018.0
20260508214509 80 0 0.0 0.0 0.00 0.00 0.00 33 1018.0
20260508213608 80 270 0.0 2.0 0.00 0.00 0.00 33 1018.0
20260508212708 80 280 2.0 2.0 0.00 0.00 0.00 33 1018.0
20260508211808 80 292 1.0 3.0 0.00 0.00 0.00 33 1018.0
20260508210907 81 315 0.0 2.0 0.00 0.00 0.00 32 1018.0
20260508210007 81 319 0.0 3.0 0.00 0.00 0.00 32 1018.0
20260508205429 82 318 1.0 3.0 0.00 0.00 0.00 32 1018.0
20260508204529 82 326 2.0 4.0 0.00 0.00 0.00 32 1018.0
20260508203607 82 306 2.0 5.0 0.00 0.00 0.00 32 1017.0
20260508202708 82 317 4.0 6.0 0.00 0.00 0.00 32 1017.0
20260508201807 83 327 4.0 6.0 0.00 0.00 0.00 31 1017.0
20260508200908 83 330 4.0 8.0 0.00 0.00 0.00 31 1017.0
20260508200007 83 336 6.0 9.0 0.00 0.00 0.00 31 1018.0
20260508195407 83 331 5.0 9.0 0.00 0.00 0.00 31 1018.0
20260508194507 83 340 5.0 8.0 0.00 0.00 0.00 31 1018.0
20260508193607 83 342 6.0 11.0 0.00 0.00 0.00 31 1018.0
20260508192707 84 338 7.0 11.0 0.00 0.00 0.00 30 1018.0
20260508191807 84 342 8.0 15.0 0.00 0.00 0.00 31 1018.0
20260508190907 84 343 6.0 13.0 0.00 0.00 0.00 31 1018.0
20260508190007 84 342 8.0 13.0 0.00 0.00 0.00 31 1018.0